Showing default

FLOCK 4G 18, 62680

Orbit data source: Space-Track

FLOCK 4G 18, 62680 is a payload satellite owned by Planet (US) in SSO that was launched on Tue, 14 Jan 2025 UTC via an FALCON 9 launch vehicle from the Air Force Western Test Range (AFWTR). Payload-class satellites include a variety of spacecraft equipped with specific instruments for various scientific and technological missions. These include communications satellites like Starlink; space stations such as the ISS; scientific satellites like the Hubble; Earth observation satellites from companies like Planet Labs, Umbra, and HawkEye 360; GPS; miniature CubeSats for education and research; and military/defense satellites.

Loading next visibility...
Identifier
62680, 2025-009BZ
Orbit
SSO
Country
Flag of USUS
Related business
Manufacturer
Planet
Mission
Partially operational Commercial Imaging
Bus & Motor
CUBESAT 3U, Unknown motor
Mass
5.7 kg wet, 5.7 kg dry
Launch date (UTC)
2025-01-14 (1 year ago)
Launch vehicle
FALCON 9
Launch site
Air Force Western Test Range (AFWTR)
Object type
Payload
Rocket body
Debris
Shape & HBR
Box + 2 Pan, 1.0 m
Radar Cross Section
0.072 m², Medium (>0.1 m² and < 1m²)

Expand to show TLE details & history
Last TLE update: 7 hours ago

TLE from 7 hours ago
0 FLOCK 4G 18
1 62680U 25009BZ  26151.21805015  .00056282  00000-0  19552-2 0  9992
2 62680  97.4019 233.0060 0005489  39.2604 320.9033 15.29539144133941
Epoch: 2026-05-31T05:13Z
TLE epoch observation values (Epoch: 2026-05-31T05:13:59.532Z)
Latitude
-0.0001°
Longitude
-94.21492°
Altitude
477.372 km
Speed
7.629 km/s
True Right ascension
15h 32m 01s
True Declination
0° 00' 00"
Sunlit
Object was in full shadow at epoch
Visualization orbit readout
Latitude
Unknown
Longitude
Unknown
Altitude
Unknown
Speed
Unknown
Apparent Right ascension
Unknown
Apparent Declination
Unknown
Sunlit
N/A
Visualization observer readout
Local Sidereal Time
21:29:25
Azimuth
Unknown
Elevation
Unknown
Doppler factor
Unknown
Orbital elements
Apogee altitude
477.903 km
Perigee altitude
470.381 km
Semi-major axis
6,852.279 km
Eccentricity
0.00055
Inclination
97.4019°
RAAN
233.006°
Arg. of periapsis
39.2604°
True anomaly
320.86361°
Mean anomaly
320.9033°
Eccentric anomaly
320.88346°
Mean motion
3.8264 °/min
Orbital period
94.08 mins
BSTAR
0.0019552
Loading maneuver chart data...
Computing Atmospheric mass density...
Loading historical data...
Loading historical data...
Loading historical data...
Loading historical data...
Loading historical data...
Loading historical data...
Loading historical data...

Documentation

Showing up to 5 results
|